When you browse on this site, cookies collect data to enhance your experience and personalize the content and advertising you see.
Visit our Privacy Policy to learn more. By continuing to use the site, you agree to this use of cookies and data.

Hourly Weather Ordino

Today, 9 July, Thursday

Time Temperature Precipitation Wind Pressure Humidity
00:00 +16°C° 0 mm 2 mps 635 mmHg 80%
01:00 +16°C° 0 mm 2 mps 635 mmHg 76%
02:00 +15°C° 0 mm 1 mps 635 mmHg 72%
03:00 +15°C° 0 mm 1 mps 635 mmHg 68%
04:00 +16°C° 0 mm 1 mps 635 mmHg 68%
05:00 +18°C° 0 mm 1 mps 636 mmHg 69%
06:00 +18°C° 0 mm 1 mps 636 mmHg 70%
07:00 +20°C° 0 mm 1 mps 637 mmHg 63%
08:00 +22°C° 0 mm 1 mps 638 mmHg 56%
09:00 +25°C° 0 mm 1 mps 639 mmHg 49%
10:00 +25°C° 0 mm 1 mps 639 mmHg 45%
11:00 +26°C° 0 mm 2 mps 639 mmHg 42%
12:00 +27°C° 0 mm 2 mps 639 mmHg 39%
13:00 +27°C° 0.5 mm 2 mps 639 mmHg 43%
14:00 +26°C° 0.5 mm 2 mps 638 mmHg 46%
15:00 +26°C° 0.5 mm 2 mps 638 mmHg 50%
16:00 +25°C° 0.9 mm 2 mps 637 mmHg 57%
17:00 +24°C° 0.9 mm 1 mps 637 mmHg 64%
18:00 +23°C° 0.9 mm 1 mps 636 mmHg 71%
19:00 +21°C° 1 mm 1 mps 636 mmHg 77%
20:00 +19°C° 1 mm 1 mps 636 mmHg 82%
21:00 +16°C° 1 mm 1 mps 636 mmHg 88%
22:00 +16°C° 0.3 mm 1 mps 635 mmHg 86%
23:00 +15°C° 0.3 mm 1 mps 635 mmHg 84%

Tomorrow, 10 July, Friday

Time Temperature Precipitation Wind Pressure Humidity
00:00 +15°C° 0.3 mm 1 mps 635 mmHg 82%
01:00 +15°C° 0.4 mm 1 mps 635 mmHg 83%
02:00 +14°C° 0.4 mm 1 mps 634 mmHg 84%
03:00 +14°C° 0.4 mm 1 mps 634 mmHg 86%
04:00 +15°C° 0.3 mm 1 mps 634 mmHg 85%
05:00 +15°C° 0.3 mm 1 mps 635 mmHg 85%
06:00 +16°C° 0.3 mm 1 mps 635 mmHg 84%
07:00 +19°C° 0.3 mm 1 mps 636 mmHg 77%
08:00 +20°C° 0.3 mm 1 mps 636 mmHg 69%
09:00 +22°C° 0.3 mm 1 mps 637 mmHg 62%
10:00 +20°C° 0.6 mm 2 mps 637 mmHg 64%
11:00 +20°C° 0.6 mm 2 mps 637 mmHg 66%
12:00 +20°C° 0.6 mm 2 mps 637 mmHg 68%
13:00 +20°C° 1.1 mm 2 mps 636 mmHg 71%
14:00 +20°C° 1.1 mm 1 mps 636 mmHg 73%
15:00 +20°C° 1.1 mm 1 mps 636 mmHg 76%
16:00 +19°C° 1 mm 1 mps 635 mmHg 79%
17:00 +19°C° 1 mm 1 mps 635 mmHg 82%
18:00 +18°C° 1 mm 1 mps 635 mmHg 86%
19:00 +16°C° 0.2 mm 1 mps 635 mmHg 89%
20:00 +15°C° 0.2 mm 1 mps 635 mmHg 92%
21:00 +14°C° 0.2 mm 1 mps 635 mmHg 95%
22:00 +14°C° 0 mm 1 mps 635 mmHg 95%
23:00 +14°C° 0 mm 1 mps 635 mmHg 95%

Day after tomorrow, 11 July, Saturday

Time Temperature Precipitation Wind Pressure Humidity
00:00 +13°C° 0 mm 1 mps 635 mmHg 95%
01:00 +13°C° 0 mm 1 mps 635 mmHg 95%
02:00 +13°C° 0 mm 1 mps 635 mmHg 95%
03:00 +13°C° 0 mm 1 mps 635 mmHg 95%
04:00 +13°C° 0 mm 1 mps 635 mmHg 94%
05:00 +13°C° 0 mm 1 mps 635 mmHg 94%
06:00 +13°C° 0 mm 1 mps 636 mmHg 93%
07:00 +15°C° 0 mm 1 mps 636 mmHg 88%
08:00 +16°C° 0 mm 1 mps 637 mmHg 82%
09:00 +18°C° 0 mm 1 mps 637 mmHg 77%
10:00 +19°C° 0.1 mm 1 mps 637 mmHg 75%
11:00 +19°C° 0.1 mm 1 mps 638 mmHg 73%
12:00 +20°C° 0.1 mm 1 mps 638 mmHg 71%
13:00 +20°C° 0.3 mm 1 mps 637 mmHg 72%
14:00 +20°C° 0.3 mm 1 mps 637 mmHg 73%
15:00 +20°C° 0.3 mm 1 mps 637 mmHg 74%
16:00 +19°C° 0.3 mm 1 mps 637 mmHg 78%
17:00 +18°C° 0.3 mm 1 mps 636 mmHg 81%
18:00 +18°C° 0.3 mm 1 mps 636 mmHg 85%
19:00 +16°C° 0.1 mm 1 mps 636 mmHg 88%
20:00 +15°C° 0.1 mm 1 mps 636 mmHg 91%
21:00 +13°C° 0.1 mm 1 mps 636 mmHg 94%
22:00 +12°C° 0 mm 0 mps 636 mmHg 94%
23:00 +12°C° 0 mm 0 mps 636 mmHg 95%

12 July, Sunday

Time Temperature Precipitation Wind Pressure Humidity
00:00 +12°C° 0 mm 0 mps 636 mmHg 95%
01:00 +12°C° 0 mm 0 mps 635 mmHg 95%
02:00 +13°C° 0 mm 1 mps 635 mmHg 94%
03:00 +12°C° 0 mm 1 mps 635 mmHg 94%
04:00 +12°C° 0 mm 0 mps 635 mmHg 91%
05:00 +13°C° 0 mm 0 mps 636 mmHg 88%
06:00 +14°C° 0 mm 0 mps 636 mmHg 86%
07:00 +18°C° 0 mm 1 mps 637 mmHg 77%
08:00 +20°C° 0 mm 1 mps 638 mmHg 69%
09:00 +21°C° 0 mm 2 mps 639 mmHg 61%
10:00 +23°C° 0 mm 2 mps 639 mmHg 57%
11:00 +24°C° 0 mm 2 mps 639 mmHg 54%
12:00 +25°C° 0 mm 2 mps 639 mmHg 50%
13:00 +24°C° 0.7 mm 2 mps 639 mmHg 55%
14:00 +24°C° 0.7 mm 1 mps 638 mmHg 60%
15:00 +23°C° 0.7 mm 1 mps 638 mmHg 65%
16:00 +22°C° 1 mm 1 mps 637 mmHg 70%
17:00 +21°C° 1 mm 1 mps 637 mmHg 76%
18:00 +20°C° 1 mm 1 mps 636 mmHg 82%
19:00 +19°C° 0.7 mm 1 mps 636 mmHg 84%
20:00 +18°C° 0.7 mm 1 mps 636 mmHg 85%
21:00 +16°C° 0.7 mm 1 mps 636 mmHg 87%
22:00 +16°C° 0.3 mm 1 mps 636 mmHg 86%
23:00 +15°C° 0.3 mm 1 mps 636 mmHg 85%

13 July, Monday

Time Temperature Precipitation Wind Pressure Humidity
00:00 +15°C° 0.3 mm 1 mps 636 mmHg 84%
01:00 +15°C° 0 mm 1 mps 635 mmHg 83%
02:00 +14°C° 0 mm 1 mps 635 mmHg 83%
03:00 +14°C° 0 mm 1 mps 634 mmHg 83%
04:00 +15°C° 0 mm 1 mps 635 mmHg 82%
05:00 +14°C° 0 mm 0 mps 635 mmHg 81%
06:00 +15°C° 0 mm 0 mps 635 mmHg 80%
07:00 +19°C° 0.1 mm 1 mps 636 mmHg 74%
08:00 +20°C° 0.1 mm 1 mps 637 mmHg 67%
09:00 +22°C° 0.1 mm 1 mps 637 mmHg 61%
10:00 +22°C° 1.5 mm 1 mps 637 mmHg 64%
11:00 +22°C° 1.5 mm 1 mps 637 mmHg 66%
12:00 +22°C° 1.5 mm 1 mps 637 mmHg 69%
13:00 +21°C° 2.1 mm 1 mps 636 mmHg 75%
14:00 +19°C° 2.1 mm 1 mps 635 mmHg 81%
15:00 +18°C° 2.1 mm 1 mps 634 mmHg 87%
16:00 +18°C° 1.4 mm 1 mps 634 mmHg 89%
17:00 +16°C° 1.4 mm 1 mps 634 mmHg 91%
18:00 +16°C° 1.4 mm 1 mps 634 mmHg 93%
19:00 +15°C° 0.2 mm 1 mps 634 mmHg 93%
20:00 +14°C° 0.2 mm 1 mps 634 mmHg 94%
21:00 +13°C° 0.2 mm 1 mps 634 mmHg 94%
22:00 +13°C° 0 mm 1 mps 634 mmHg 94%
23:00 +13°C° 0 mm 1 mps 634 mmHg 94%

14 July, Tuesday

Time Temperature Precipitation Wind Pressure Humidity
00:00 +13°C° 0 mm 1 mps 634 mmHg 94%
01:00 +12°C° 0 mm 1 mps 633 mmHg 94%
02:00 +12°C° 0 mm 1 mps 633 mmHg 94%
03:00 +11°C° 0 mm 0 mps 633 mmHg 94%
04:00 +12°C° 0.2 mm 1 mps 633 mmHg 94%
05:00 +12°C° 0.2 mm 1 mps 634 mmHg 93%
06:00 +12°C° 0.2 mm 1 mps 634 mmHg 93%
07:00 +13°C° 0.3 mm 1 mps 634 mmHg 91%
08:00 +13°C° 0.3 mm 1 mps 635 mmHg 89%
09:00 +14°C° 0.3 mm 1 mps 635 mmHg 88%
10:00 +14°C° 0.5 mm 1 mps 635 mmHg 86%
11:00 +15°C° 0.5 mm 1 mps 635 mmHg 84%
12:00 +15°C° 0.5 mm 1 mps 635 mmHg 82%
13:00 +15°C° 0.8 mm 2 mps 635 mmHg 81%
14:00 +16°C° 0.8 mm 2 mps 635 mmHg 80%
15:00 +16°C° 0.8 mm 2 mps 635 mmHg 78%
16:00 +15°C° 0.4 mm 2 mps 635 mmHg 79%
17:00 +15°C° 0.4 mm 2 mps 635 mmHg 80%
18:00 +14°C° 0.4 mm 2 mps 635 mmHg 81%
19:00 +13°C° 0 mm 2 mps 634 mmHg 84%
20:00 +10°C° 0 mm 2 mps 634 mmHg 88%
21:00 +9°C° 0 mm 2 mps 634 mmHg 91%
22:00 +8°C° 0 mm 2 mps 634 mmHg 90%
23:00 +8°C° 0 mm 2 mps 634 mmHg 89%
Show more